Orlando, FL

1:37 AM EST on January 21, 2017 (GMT -0500)
Orlando International Airport

Weather History for KMCO - April, 2013

Change the Weather History Date:

Wednesday, April 3, 2013

  Actual Average Record
Temperature  
Mean Temperature 73 °F 69 °F  
Max Temperature 85 °F 80 °F 94 °F (1935)
Min Temperature 60 °F 58 °F 40 °F (1919)
Degree Days  
Heating Degree Days 0 1  
Month to date heating degree days 0 3  
Since 1 July heating degree days 461 561  
Cooling Degree Days 8 5  
Month to date cooling degree days 25 15  
Year to date cooling degree days 276 237  
Growing Degree Days 22 (Base 50)    
Moisture  
Dew Point 64 °F    
Average Humidity 69    
Maximum Humidity 93    
Minimum Humidity 44    
Precipitation  
Precipitation 0.13 in 0.11 in 1.26 in (1984)
Month to date precipitation 0.13 0.33  
Year to date precipitation 2.31 8.83  
Sea Level Pressure  
Sea Level Pressure 30.04 in    
Wind  
Wind Speed 8 mph (ESE)    
Max Wind Speed 17 mph    
Max Gust Speed 22 mph    
Visibility 9 miles    
Events Rain , Thunderstorm    
T = Trace of Precipitation, MM = Missing Value Source: NWS Daily Summary

Daily Weather History Graph

Daily Weather History Graph

Search for Another Location

Airport or City:

Trip Planner

Search our weather history database for the weather conditions in past years. The results will help you decide how hot, cold, wet, or windy it might be!

Date:

Astronomy

Apr. 03, 2013 Rise Set
Actual Time 7:12 AM EDT 7:44 PM EDT
Civil Twilight 6:49 AM EDT 8:08 PM EDT
Nautical Twilight 6:21 AM EDT 8:36 PM EDT
Astronomical Twilight 5:53 AM EDT 9:04 PM EDT
Moon 2:21 AM EDT (4/3) 1:25 PM EDT (4/3)
Length of Visible Light 13h 19m
Length of Day
12h 31m
Last Quarter, 45% of the Moon is Illuminated
Apr 3
Last Quarter
Apr 10
New
Apr 18
First Quarter
Apr 25
Full
May 2
Last Quarter

Hourly Weather History & Observations

Time (EDT) Temp. Heat Index Dew Point Humidity Pressure Visibility Wind Dir Wind Speed Gust Speed Precip Events Conditions
12:53 AM 64.4 °F - 59.0 °F 83% 30.11 in 10.0 mi ENE 3.5 mph - N/A   Clear
1:53 AM 64.4 °F - 60.8 °F 88% 30.09 in 10.0 mi ENE 3.5 mph - N/A   Partly Cloudy
2:53 AM 60.8 °F - 57.2 °F 88% 30.08 in 10.0 mi Calm Calm - N/A   Scattered Clouds
3:53 AM 63.0 °F - 60.1 °F 90% 30.05 in 10.0 mi East 3.5 mph - N/A   Scattered Clouds
4:53 AM 62.1 °F - 60.1 °F 93% 30.05 in 10.0 mi East 3.5 mph - N/A   Scattered Clouds
5:53 AM 63.0 °F - 61.0 °F 93% 30.05 in 10.0 mi ESE 8.1 mph - N/A   Scattered Clouds
6:53 AM 63.0 °F - 61.0 °F 93% 30.06 in 9.0 mi East 3.5 mph - N/A   Scattered Clouds
7:53 AM 64.0 °F - 62.1 °F 93% 30.07 in 10.0 mi ESE 4.6 mph - N/A   Scattered Clouds
8:53 AM 71.1 °F - 64.0 °F 78% 30.07 in 10.0 mi ESE 10.4 mph - N/A   Scattered Clouds
9:53 AM 75.9 °F - 64.0 °F 67% 30.07 in 10.0 mi ESE 12.7 mph - N/A   Scattered Clouds
10:53 AM 80.1 °F 81.9 °F 64.9 °F 60% 30.06 in 10.0 mi SE 13.8 mph 21.9 mph N/A   Scattered Clouds
11:53 AM 81.0 °F 82.5 °F 64.0 °F 56% 30.06 in 10.0 mi South 10.4 mph - N/A   Scattered Clouds
12:53 PM 82.0 °F 83.0 °F 62.1 °F 51% 30.03 in 10.0 mi SSE 9.2 mph - N/A   Scattered Clouds
1:53 PM 84.0 °F 84.0 °F 60.1 °F 44% 30.01 in 10.0 mi South 8.1 mph - N/A   Mostly Cloudy
2:53 PM 84.0 °F 84.4 °F 61.0 °F 46% 30.01 in 10.0 mi East 12.7 mph - N/A   Overcast
3:53 PM 82.0 °F 82.7 °F 61.0 °F 49% 30.00 in 10.0 mi East 16.1 mph - N/A   Overcast
4:53 PM 79.0 °F - 59.0 °F 50% 29.99 in 10.0 mi ESE 16.1 mph - 0.00 in Rain Light Rain
5:53 PM 77.0 °F - 59.0 °F 54% 29.99 in 10.0 mi East 11.5 mph - 0.00 in   Overcast
6:53 PM 75.0 °F - 63.0 °F 66% 29.99 in 10.0 mi East 10.4 mph - 0.00 in Rain Light Rain
7:36 PM 73.4 °F - 66.2 °F 78% 30.01 in 8.0 mi ENE 8.1 mph - 0.02 in Rain , Thunderstorm Thunderstorms and Rain
7:53 PM 71.1 °F - 69.1 °F 93% 30.01 in 6.0 mi ESE 5.8 mph - 0.08 in Rain , Thunderstorm Light Thunderstorms and Rain
8:25 PM 71.6 °F - 69.8 °F 94% 30.02 in 10.0 mi East 6.9 mph - 0.01 in   Overcast
8:40 PM 71.6 °F - 69.8 °F 94% 30.03 in 9.0 mi East 5.8 mph - 0.01 in Thunderstorm Thunderstorm
8:53 PM 71.1 °F - 69.1 °F 93% 30.03 in 10.0 mi East 10.4 mph - 0.01 in Thunderstorm Thunderstorm
9:19 PM 71.6 °F - 69.8 °F 94% 30.05 in 7.0 mi Variable 5.8 mph - 0.00 in Rain Rain
9:27 PM 69.8 °F - 68.0 °F 94% 30.05 in 5.0 mi WSW 5.8 mph - 0.02 in Rain Light Rain
9:53 PM 71.1 °F - 68.0 °F 90% 30.05 in 10.0 mi Calm Calm - 0.02 in   Overcast
10:12 PM 71.6 °F - 69.8 °F 94% 30.07 in 10.0 mi East 4.6 mph - N/A   Overcast
10:20 PM 71.6 °F - 69.8 °F 94% 30.07 in 10.0 mi East 5.8 mph - N/A   Overcast
10:40 PM 71.6 °F - 69.8 °F 94% 30.06 in 10.0 mi ESE 9.2 mph - N/A   Overcast
10:53 PM 71.1 °F - 69.1 °F 93% 30.07 in 10.0 mi ESE 6.9 mph - 0.00 in Rain Light Rain
11:53 PM 70.0 °F - 70.0 °F 100% 30.05 in 10.0 mi East 6.9 mph - 0.02 in   Overcast